Date,TemperatureHighF,TemperatureAvgF,TemperatureLowF,DewpointHighF,DewpointAvgF,DewpointLowF,HumidityHigh,HumidityAvg,HumidityLow,PressureMaxIn,PressureMinIn,WindSpeedMaxMPH,WindSpeedAvgMPH,GustSpeedMaxMPH,PrecipitationSumIn
2013-1-1,33,30,26,30,27,21,92,87,68,30.00,29.90,7,2,0,0.00
2013-1-2,27,23,20,21,14,10,83,68,53,30.19,29.99,7,2,0,0.09
2013-1-3,33,27,21,19,16,13,72,63,52,30.19,30.08,12,3,0,0.12
2013-1-4,32,28,26,20,19,18,75,69,57,30.23,30.14,12,6,0,0.00
2013-1-5,36,31,26,22,20,19,75,65,54,30.34,30.10,10,2,0,0.18
2013-1-6,38,36,34,30,25,21,86,66,58,30.13,29.95,13,3,0,0.15
2013-1-7,36,30,27,29,23,20,88,75,56,30.41,30.13,10,2,0,0.03
2013-1-8,47,40,27,27,23,17,71,51,41,30.30,30.19,7,2,0,0.32
2013-1-9,49,46,40,42,34,21,90,66,39,30.40,30.16,11,4,0,0.14
2013-1-10,48,40,34,36,30,24,87,69,39,30.52,30.18,14,1,0,0.01
2013-1-11,59,54,46,53,44,28,89,70,45,30.16,29.85,24,6,0,0.14
2013-1-12,66,62,57,54,52,50,86,72,58,29.99,29.83,12,3,0,0.00
2013-1-13,68,65,58,55,50,47,91,59,50,29.86,29.73,16,5,0,0.32
2013-1-14,59,41,33,55,34,25,91,77,65,30.28,29.77,17,4,0,0.10
2013-1-15,34,31,29,31,25,22,91,79,74,30.30,29.98,7,2,0,0.32
2013-1-16,38,35,33,36,32,30,93,90,84,29.98,29.80,12,2,0,0.46
2013-1-17,35,33,30,30,27,25,85,79,70,30.12,29.97,7,1,0,0.00
2013-1-18,37,28,20,25,12,1,83,53,22,30.46,30.11,18,5,0,0.00
2013-1-19,53,45,39,16,11,-3,35,25,17,30.23,29.80,20,6,0,0.00
2013-1-20,46,38,25,28,16,7,61,42,26,30.06,29.76,24,6,0,0.00
2013-1-21,30,24,13,17,10,-5,80,58,43,30.05,29.84,16,5,0,0.00
2013-1-22,14,10,7,3,-4,-8,68,52,42,30.27,30.01,14,5,0,0.00
2013-1-23,16,12,6,10,0,-4,80,59,42,30.30,30.02,10,2,0,0.00
2013-1-24,20,15,11,11,6,-4,85,68,45,30.51,30.01,14,3,0,0.00
2013-1-25,21,17,10,17,8,-3,85,69,50,30.50,29.98,6,1,0,0.00
2013-1-26,26,23,20,22,18,11,88,81,62,30.39,30.06,10,2,0,0.00
2013-1-27,35,26,18,20,15,11,76,63,45,30.48,30.23,6,0,0,0.13
2013-1-28,51,45,33,50,40,18,94,82,50,30.23,29.97,17,4,0,0.49
2013-1-29,68,59,51,52,50,46,96,74,50,29.98,29.70,13,5,0,0.02
2013-1-30,73,60,47,53,50,43,89,70,44,29.67,29.14,19,7,0,1.12
2013-1-31,47,28,23,42,19,7,86,67,48,29.83,29.15,22,8,0,0.10
2013-2-1,24,15,10,19,7,0,88,71,55,30.34,29.76,12,5,0,0.00
2013-2-2,25,18,10,22,10,0,89,70,48,30.33,29.93,16,3,0,0.00
2013-2-3,26,23,18,23,20,11,90,86,72,30.01,29.76,11,2,0,0.04
2013-2-4,32,24,18,30,17,9,92,77,56,30.06,29.80,9,3,0,0.00
2013-2-5,35,32,29,33,30,24,94,91,67,29.88,29.76,12,1,0,0.06
2013-2-6,31,29,26,28,24,21,92,82,71,30.27,29.87,4,0,0,0.00
2013-2-7,43,34,23,30,24,18,84,70,52,30.24,29.86,18,3,0,0.25
2013-2-8,42,35,25,36,28,18,89,76,65,30.10,29.71,17,6,0,0.15
2013-2-9,32,27,24,20,16,14,84,65,51,30.34,30.11,14,4,0,0.00
2013-2-10,54,38,20,35,16,9,76,45,20,30.30,29.87,16,3,0,0.02
2013-2-11,62,52,40,45,33,19,81,53,22,29.87,29.59,21,9,0,0.03
2013-2-12,48,40,36,25,21,17,59,47,31,29.99,29.79,18,5,0,0.00
2013-2-13,41,36,31,30,24,17,92,64,41,29.84,29.55,9,1,0,0.01
2013-2-14,44,36,28,31,27,24,92,72,52,29.92,29.79,16,3,0,0.13
2013-2-15,42,35,30,31,28,23,90,75,54,29.97,29.84,8,2,0,0.06
2013-2-16,30,25,21,26,17,9,87,72,54,29.97,29.87,10,2,0,0.01
2013-2-17,21,18,14,15,9,3,85,68,51,30.24,29.87,13,6,0,0.00
2013-2-18,49,33,14,29,13,2,60,45,28,30.28,29.81,21,4,0,0.00
2013-2-19,48,40,25,36,28,16,87,65,34,29.89,29.59,18,6,0,0.15
2013-2-20,25,20,19,17,11,7,81,67,57,30.20,29.89,13,6,0,0.00
2013-2-21,25,21,18,14,12,8,79,67,59,30.30,30.16,10,3,0,0.00
2013-2-22,43,35,21,35,25,13,83,69,46,30.22,29.89,21,6,0,0.02
2013-2-23,54,43,35,39,34,31,84,72,45,29.89,29.72,11,1,0,0.00
2013-2-24,35,30,27,31,23,18,85,76,67,30.09,29.76,13,2,0,0.00
2013-2-25,43,33,25,22,19,17,76,57,40,30.16,29.93,14,3,0,0.00
2013-2-26,40,37,34,33,25,17,82,63,46,29.94,29.44,20,8,0,0.61
2013-2-27,40,38,32,37,34,30,91,84,72,29.62,29.46,15,3,0,0.29
2013-2-28,32,31,31,30,29,27,92,89,84,29.75,29.57,10,3,0,0.06
2013-3-1,32,29,26,30,24,20,92,81,65,29.90,29.74,16,4,0,0.01
2013-3-2,27,25,23,22,20,18,86,81,73,29.91,29.84,12,3,0,0.00
2013-3-3,27,24,22,21,17,14,88,76,59,29.97,29.87,15,3,0,0.01
2013-3-4,36,27,21,17,14,11,76,58,43,30.09,29.96,10,2,0,0.04
2013-3-5,51,36,24,30,18,5,92,52,18,30.02,29.49,21,2,0,0.02
2013-3-6,35,32,30,33,31,28,96,94,93,30.04,29.48,19,3,0,0.09
2013-3-7,37,34,31,33,29,25,95,83,62,30.21,30.03,12,3,0,0.00
2013-3-8,34,32,29,27,23,21,84,72,65,30.35,30.20,15,6,0,0.00
2013-3-9,58,41,24,30,22,15,86,54,20,30.34,30.06,12,1,0,0.00
2013-3-10,70,58,50,29,23,17,33,26,19,30.06,29.86,14,4,0,0.00
2013-3-11,63,58,52,48,30,23,85,37,24,29.90,29.61,25,4,0,0.06
2013-3-12,52,39,36,49,34,25,91,81,65,29.95,29.64,8,3,0,0.22
2013-3-13,36,31,26,29,24,18,89,76,59,30.09,29.87,17,4,0,0.03
2013-3-14,38,30,24,20,16,13,82,57,36,30.20,30.06,14,6,0,0.00
2013-3-15,50,39,30,32,22,14,60,51,42,30.10,29.74,12,4,0,0.00
2013-3-16,56,45,36,45,39,31,90,80,62,29.85,29.49,8,2,0,0.05
2013-3-17,37,33,29,31,23,19,85,68,52,30.10,29.85,12,4,0,0.00
2013-3-18,48,36,31,40,31,22,95,81,59,30.04,29.63,17,5,0,1.00
2013-3-19,48,41,32,44,24,8,90,55,23,29.91,29.61,24,7,0,0.06
2013-3-20,41,33,28,19,12,10,54,43,29,29.93,29.72,21,6,0,0.00
2013-3-21,27,23,17,19,11,5,87,62,43,29.90,29.78,13,5,0,0.00
2013-3-22,39,29,24,16,14,12,70,55,36,29.96,29.88,18,4,0,0.00
2013-3-23,47,36,28,20,17,14,60,46,28,29.98,29.88,16,2,0,0.00
2013-3-24,40,33,28,29,20,15,90,61,39,29.90,29.34,16,3,0,0.00
2013-3-25,33,32,30,32,30,27,96,93,82,29.66,29.35,18,4,0,0.25
2013-3-26,39,34,31,36,30,25,96,87,61,30.02,29.67,16,3,0,0.23
2013-3-27,40,34,30,29,25,21,88,71,50,30.11,30.00,11,3,0,0.02
2013-3-28,41,36,31,28,25,23,83,65,50,30.20,30.07,10,3,0,0.01
2013-3-29,51,42,38,26,25,19,62,53,29,30.20,30.09,10,2,0,0.00
2013-3-30,55,51,47,23,17,12,37,26,19,30.07,29.92,11,1,0,0.00
2013-3-31,50,48,44,45,37,20,89,70,31,29.92,29.64,12,2,0,0.11
2013-4-1,46,41,34,42,28,10,86,63,28,29.96,29.65,13,5,0,0.02
2013-4-2,41,32,25,14,11,7,60,43,27,30.14,29.95,12,4,0,0.00
2013-4-3,42,33,26,16,11,4,59,42,23,30.33,30.12,21,4,0,0.00
2013-4-4,56,40,25,16,11,4,59,33,14,30.32,29.90,7,1,0,0.00
2013-4-5,56,46,36,32,23,16,72,42,27,30.06,29.84,24,6,0,0.00
2013-4-6,62,46,28,20,13,2,69,34,10,30.21,29.91,17,2,0,0.00
2013-4-7,71,63,55,50,36,19,80,39,24,29.91,29.78,20,6,0,0.06
2013-4-8,75,66,56,46,42,37,71,45,28,29.93,29.79,17,2,0,0.01
2013-4-9,80,71,62,51,48,45,60,46,33,29.98,29.80,13,2,0,0.00
2013-4-10,83,74,62,54,50,46,76,44,30,29.85,29.66,28,5,0,0.00
2013-4-11,80,70,59,55,52,49,74,54,34,29.75,29.55,11,3,0,0.00
2013-5-23,62,61,59,58,56,56,88,86,84,29.75,29.70,2,0,0,0.28
2013-5-24,59,45,41,56,38,30,92,77,55,30.22,29.73,14,6,0,0.09
2013-5-25,60,46,33,37,33,30,88,63,37,30.26,30.14,11,2,0,0.00
2013-5-26,65,52,40,39,33,30,68,51,30,30.22,30.12,12,1,0,0.00
2013-5-27,65,54,45,48,38,-100,76,57,39,30.18,29.99,11,-20,0,0.00
2013-5-28,80,72,65,65,55,46,84,55,46,29.98,29.88,12,2,0,0.06
2013-5-29,84,77,70,61,56,53,62,50,38,30.00,29.90,11,2,0,0.00
2013-5-30,89,79,70,62,59,56,65,51,36,30.08,29.95,6,0,0,0.00
2013-5-31,88,76,72,61,53,-100,62,47,33,30.01,29.85,7,-31,0,0.00
2013-6-1,86,77,66,64,61,58,88,60,43,29.91,29.70,8,1,0,0.00
2013-6-2,78,70,65,64,52,-100,88,63,51,29.77,29.67,17,-39,0,0.11
2013-6-3,67,56,55,61,39,-100,91,72,64,29.93,29.75,7,-94,0,0.02
2013-6-4,71,58,45,50,42,-100,87,59,32,30.07,29.93,6,-10,0,0.01
2013-6-5,84,67,51,63,51,-100,87,61,39,30.02,29.79,7,-10,0,0.19
2013-6-6,70,66,63,61,60,59,91,81,70,29.79,29.64,11,2,0,0.45
2013-6-7,66,62,60,62,59,-100,96,92,85,29.74,29.62,6,-11,0,0.20
2013-6-8,73,63,55,57,55,52,94,77,54,30.00,29.74,2,0,0,0.00
2013-6-9,84,71,59,63,59,54,87,66,39,30.05,29.87,8,0,0,0.00
2013-6-10,79,71,66,65,62,60,85,76,60,29.89,29.69,13,3,0,0.05
2013-6-13,70,65,60,64,60,56,91,84,72,29.68,29.46,10,2,0,0.98
2013-6-14,71,62,55,59,54,52,92,77,52,29.94,29.68,8,1,0,0.05
2013-6-15,79,67,56,56,51,42,91,61,27,30.03,29.91,2,0,0,0.00
2013-6-16,73,66,63,63,54,-100,83,70,53,29.91,29.83,10,-30,0,0.07
2013-6-17,82,60,66,66,36,-100,91,61,51,29.88,29.78,4,-166,0,0.68
2013-6-18,76,56,65,65,30,-100,88,61,58,29.81,29.72,5,-200,0,0.00
2013-6-19,77,54,61,63,20,-100,89,49,39,30.02,29.81,2,-223,0,0.00
2013-6-20,82,40,56,57,-10,-100,89,36,37,30.14,30.01,2,-406,0,0.00
2013-6-21,86,27,60,63,-45,-100,91,20,39,30.16,30.03,0,-633,0,0.00
2013-6-22,88,77,66,65,62,60,84,61,40,30.10,29.94,6,0,0,0.00
2013-6-23,89,79,72,66,62,57,71,57,35,30.04,29.93,6,0,0,0.00
2013-6-24,86,78,72,66,63,61,72,61,48,30.02,29.89,3,0,0,0.00
2013-6-25,88,77,66,66,64,59,80,65,45,29.95,29.79,9,1,0,0.07
2013-6-26,80,73,66,68,65,61,92,77,64,29.84,29.70,6,1,0,0.80
2013-6-27,74,69,67,66,63,-100,92,84,68,29.70,29.57,7,-11,0,0.75
2013-6-28,78,69,64,67,64,60,92,83,63,29.55,29.42,8,1,0,0.42
2013-6-29,79,69,62,63,60,58,89,73,50,29.57,29.45,7,1,0,0.00
2013-6-30,82,70,63,65,61,59,88,75,52,29.70,29.56,5,0,0,0.00
2013-7-1,82,72,66,69,64,62,90,79,56,29.82,29.67,4,0,0,0.20
2013-7-2,85,75,66,66,64,59,92,71,42,29.95,29.81,8,0,0,0.24
2013-7-3,86,78,71,68,64,62,77,64,50,30.05,29.94,7,0,0,0.00
2013-7-4,86,76,70,70,64,61,90,69,45,30.11,30.00,8,1,0,0.01
2013-7-5,87,78,70,68,65,62,88,63,48,30.05,29.97,12,1,0,0.00
2013-7-6,92,79,71,69,66,62,86,66,41,30.06,29.89,3,0,0,0.00
2013-7-7,77,72,68,67,65,64,89,80,67,29.99,29.91,5,0,0,0.34
2013-7-8,83,72,65,66,63,59,90,75,55,30.04,29.95,5,0,0,0.00
2013-7-9,82,74,68,71,67,64,90,79,68,29.98,29.87,8,1,0,0.79
2013-7-10,86,74,66,71,60,-100,91,71,57,29.87,29.71,10,-27,0,0.59
2013-7-11,76,68,65,65,63,58,93,83,65,29.89,29.75,6,0,0,0.01
2013-7-12,72,59,59,64,49,-100,93,81,72,30.00,29.85,1,-58,0,0.52
2013-7-13,81,69,62,70,59,-100,97,77,56,30.09,29.97,11,-31,0,0.52
2013-7-14,90,62,71,68,28,-100,80,49,40,30.17,30.07,7,-201,0,0.00
2013-7-15,90,48,73,68,-4,-100,79,35,38,30.28,30.10,3,-386,0,0.00
2013-7-16,92,70,71,73,50,-100,93,66,48,30.26,30.10,7,-104,0,0.63
2013-7-17,90,74,70,73,63,-100,93,76,51,30.20,30.03,5,-42,0,0.01
2013-7-18,93,81,72,74,70,68,89,70,46,30.06,29.91,2,0,0,0.00
2013-7-28,76,25,67,57,-58,-100,60,15,51,29.93,29.82,8,-658,0,0.32
2013-7-29,75,45,58,58,2,-100,74,40,44,30.08,29.92,11,-332,0,0.00
2013-7-30,76,30,57,57,-29,-100,87,34,52,30.13,30.04,0,-531,0,0.00
2013-7-31,76,45,62,64,5,-100,91,51,60,30.07,29.84,0,-347,0,0.00
2013-8-1,80,53,65,66,19,-100,92,56,51,29.84,29.74,5,-253,0,0.13
2013-8-2,80,68,64,60,50,-100,84,62,43,29.89,29.79,8,-41,0,0.00
2013-8-3,71,65,64,65,58,-100,92,83,66,29.89,29.84,7,-11,0,0.34
2013-8-4,74,52,60,62,24,-100,93,57,47,29.98,29.88,5,-208,0,0.00
2013-8-5,75,60,54,57,46,-100,89,66,36,30.04,29.90,3,-40,0,0.00
2013-8-6,83,70,58,62,56,50,87,61,34,29.93,29.85,6,0,0,0.00
2013-8-7,87,74,67,70,62,-100,92,71,48,29.91,29.78,8,-10,0,0.83
2013-8-8,83,74,71,72,67,63,89,77,63,29.88,29.80,5,0,0,0.02
2013-8-9,81,72,69,70,69,67,93,88,66,29.90,29.77,7,1,0,0.00
2013-8-10,82,71,61,67,62,57,95,75,46,29.98,29.90,5,0,0,0.00
2013-8-11,84,67,62,65,48,-100,89,64,48,30.00,29.89,1,-73,0,0.00
2013-8-12,83,73,66,67,64,60,92,75,49,29.95,29.77,2,0,0,0.00
2013-8-13,77,69,60,66,62,51,92,78,56,29.85,29.69,8,2,0,0.00
2013-8-14,67,58,51,53,50,46,91,76,57,30.05,29.85,6,0,0,0.00
2013-8-15,76,62,50,56,50,44,92,68,39,30.11,29.99,6,0,0,0.00
2013-8-16,78,65,54,59,54,49,90,69,46,30.05,29.99,3,0,0,0.00
2013-8-17,75,67,58,57,53,51,81,62,43,30.14,30.04,6,1,0,0.00
2013-8-18,74,64,62,64,48,-100,90,72,65,30.11,30.03,11,-31,0,0.00
2013-8-19,78,69,65,67,64,61,92,84,64,30.03,29.95,2,0,0,0.00
2013-8-20,81,70,62,64,60,54,92,71,42,30.09,29.99,0,0,0,0.00
2013-8-21,84,70,62,70,62,57,91,77,58,30.08,29.96,8,0,0,0.00
2013-8-22,80,70,65,67,64,60,91,81,64,30.01,29.88,9,1,0,0.00
2013-8-23,78,69,63,67,61,55,95,79,46,30.03,29.87,6,0,0,0.00
2013-8-24,82,69,58,62,56,46,90,66,29,30.18,30.03,2,0,0,0.00
2013-8-25,81,71,61,60,56,53,79,59,40,30.27,30.13,7,0,0,0.00
2013-8-26,82,73,65,63,59,55,72,62,50,30.16,29.93,6,1,0,0.00
2013-8-27,76,70,70,70,61,-100,91,80,67,29.93,29.84,5,-32,0,0.00
2013-8-28,76,73,69,72,70,66,94,89,82,29.85,29.69,9,0,0,0.00
2013-8-29,83,73,68,71,68,65,97,84,60,29.90,29.78,3,0,0,0.00
2013-8-30,86,76,67,68,65,62,87,70,49,29.90,29.72,4,0,0,0.00
2013-8-31,84,76,72,68,66,64,82,71,54,29.75,29.68,7,1,0,0.00
2013-9-1,80,74,71,70,66,63,86,76,61,29.74,29.65,5,0,0,0.00
2013-9-2,81,73,65,71,67,63,93,81,64,29.74,29.64,7,1,0,0.00
2013-9-3,74,66,60,64,59,54,97,79,52,29.94,29.71,10,1,0,0.00
2013-9-4,77,64,53,57,54,51,92,71,45,30.04,29.93,3,0,0,0.00
2013-9-5,74,65,57,60,55,46,83,70,48,30.09,29.97,7,1,0,0.00
2013-9-6,74,60,48,55,48,43,90,66,44,30.16,30.02,5,0,0,0.00
2013-9-7,80,38,52,55,-6,-100,100,48,35,30.02,29.85,0,-340,0,0.00
2013-9-8,-200,0,200,-100,-100,-100,0,0,100,29.95,29.83,0,-999,0,0.00
2013-9-9,-200,0,200,-100,-100,-100,0,0,100,30.02,29.94,0,-999,0,0.00
2013-9-10,-200,0,200,-100,-100,-100,0,0,100,30.10,29.99,0,-999,0,0.00
2013-9-11,-200,0,200,-100,-100,-100,0,0,100,30.10,29.96,0,-999,0,0.00
2013-9-12,-200,0,200,-100,-100,-100,0,0,100,29.96,29.72,0,-999,0,0.00
2013-9-13,-200,0,200,-100,-100,-100,0,0,100,29.92,29.72,0,-999,0,0.00
2013-9-14,79,16,52,52,-57,-100,100,22,39,30.09,29.91,0,-684,0,0.72
2013-9-15,72,60,46,53,48,43,88,68,47,30.11,29.96,6,0,0,0.00
2013-9-16,67,60,53,56,53,50,93,80,60,30.19,29.92,5,0,0,0.23
2013-9-17,71,57,47,57,46,39,93,72,34,30.29,30.14,6,0,0,0.01
2013-9-18,71,60,50,56,48,38,80,65,43,30.16,30.03,6,0,0,0.00
2013-9-19,78,53,62,60,23,-100,88,56,49,30.05,29.91,2,-221,0,0.00
2013-9-20,78,71,64,67,63,56,86,76,63,29.93,29.72,3,0,0,0.00
2013-9-21,72,65,55,64,59,53,93,81,68,29.72,29.54,6,0,0,1.27
2013-9-22,61,49,51,55,30,-100,95,71,51,29.92,29.69,8,-124,0,0.01
2013-9-23,56,45,46,48,28,-100,92,68,61,30.06,29.92,6,-107,0,0.00
2013-9-24,69,52,38,54,45,36,93,78,53,30.05,29.87,4,0,0,0.00
2013-9-25,76,61,50,57,49,46,89,68,45,29.89,29.76,3,0,0,0.00
2013-9-26,74,57,50,54,37,-100,88,59,35,29.97,29.80,2,-74,0,0.00
2013-9-27,75,61,49,55,50,46,90,68,41,30.08,29.96,2,0,0,0.00
2013-9-28,73,63,56,54,50,47,77,64,43,30.14,30.02,9,1,0,0.00
2013-9-29,74,63,54,57,50,46,77,63,43,30.05,29.91,7,0,0,0.00
2013-9-30,70,61,56,58,54,49,84,78,65,29.97,29.89,0,0,0,0.00
2013-10-1,77,63,60,60,48,-100,80,65,49,30.00,29.91,3,-54,0,0.00
2013-10-2,78,69,62,63,58,56,83,70,53,30.02,29.93,4,0,0,0.00
2013-10-3,80,71,66,65,61,58,90,71,56,30.00,29.91,0,0,0,0.01
2013-10-4,81,72,66,65,62,61,87,72,52,30.03,29.92,3,0,0,0.00
2013-10-5,84,74,69,65,62,61,77,67,49,29.98,29.86,5,0,0,0.00
2013-10-6,86,76,69,63,58,52,80,55,36,29.86,29.64,7,0,0,0.00
2013-10-7,72,58,49,56,48,40,91,72,51,30.06,29.55,7,1,0,0.68
2013-10-8,66,54,45,48,43,39,89,69,41,30.21,30.05,0,0,0,0.00
2013-10-9,67,55,47,43,40,32,80,59,28,30.22,30.11,3,0,0,0.00
2013-10-10,64,57,52,54,46,38,85,67,54,30.11,29.98,8,0,0,0.00
2013-10-11,57,54,51,54,52,49,94,90,84,29.99,29.93,3,0,0,0.10
2013-10-12,72,61,55,61,56,53,96,85,64,30.05,29.95,2,0,0,0.00
2013-10-13,74,63,58,58,54,52,87,74,55,30.14,30.03,5,0,0,0.02
2013-10-14,64,59,57,58,55,52,91,85,77,30.19,30.11,2,0,0,0.25
2013-10-15,74,63,56,60,53,49,86,71,49,30.12,29.87,3,0,0,0.00
2013-10-16,69,65,62,58,50,37,85,60,36,29.88,29.77,6,0,0,0.00
2013-10-17,62,56,49,60,54,46,94,92,85,29.84,29.58,8,0,0,0.38
2013-10-18,61,51,44,46,41,37,90,70,42,29.98,29.84,6,0,0,0.01
2013-10-19,55,48,40,46,41,37,90,78,62,29.90,29.70,8,0,0,0.12
2013-10-20,58,47,39,39,36,32,89,67,39,30.00,29.89,5,0,0,0.00
2013-10-21,66,56,48,38,34,30,58,43,28,29.99,29.78,10,0,0,0.00
2013-10-22,60,49,39,44,36,30,89,63,39,29.90,29.74,6,1,0,0.07
2013-10-23,41,39,37,37,35,30,90,86,66,29.89,29.68,8,0,0,0.00
2013-10-24,41,37,33,34,32,28,88,82,60,30.11,29.89,5,0,0,0.00
2013-10-25,43,35,32,33,30,28,91,80,59,30.33,30.12,3,0,0,0.00
2013-10-26,50,42,34,28,25,21,73,53,35,30.24,29.86,8,1,0,0.00
2013-10-27,54,45,38,33,30,27,75,57,37,30.03,29.92,3,0,0,0.00
2013-10-28,61,48,34,40,34,29,88,60,32,30.20,30.02,3,0,0,0.00
2013-10-29,60,48,36,38,34,30,89,62,32,30.31,30.17,0,0,0,0.00
2013-10-30,60,56,48,55,47,32,84,74,47,30.16,30.02,1,0,0,0.00
2013-10-31,69,64,59,56,53,49,84,68,51,30.01,29.39,12,2,0,0.03
2013-11-1,69,60,54,53,45,40,68,56,43,29.62,29.29,14,1,0,0.04
2013-11-2,56,49,44,44,40,38,84,72,54,29.89,29.56,6,0,0,0.01
2013-11-3,49,41,34,40,32,25,91,72,42,30.37,29.89,8,1,0,0.01
2013-11-4,49,39,31,26,23,20,84,55,35,30.46,30.33,8,1,0,0.00
2013-11-5,58,48,40,33,26,23,55,44,31,30.44,30.23,5,0,0,0.00
2013-11-6,74,64,53,47,44,33,66,50,34,30.24,29.81,8,1,0,0.00
2013-11-7,64,47,38,53,38,22,92,73,50,30.09,29.76,10,2,0,0.13
2013-11-8,43,37,32,28,25,22,71,61,45,30.25,30.05,6,2,0,0.00
2013-11-9,58,46,32,25,21,16,70,40,21,30.23,29.93,8,1,0,0.00
2013-11-10,51,44,37,32,26,20,63,51,31,30.23,29.92,13,3,0,0.00
2013-11-11,50,42,32,36,26,21,78,55,34,30.23,29.96,12,1,0,0.01
2013-11-12,42,29,26,37,24,17,92,82,58,30.45,29.97,8,1,0,0.01
2013-11-13,35,28,21,20,18,17,83,68,49,30.51,30.36,8,1,0,0.06
2013-11-14,49,40,29,18,16,12,64,41,24,30.36,30.12,12,2,0,0.01
2013-11-15,56,50,45,41,20,11,80,33,22,30.17,30.05,11,1,0,0.01
2013-11-16,65,54,44,48,43,39,81,68,51,30.14,29.93,11,1,0,0.01
2013-11-17,67,61,53,57,50,44,84,67,54,29.94,29.45,24,2,0,0.12
2013-11-18,55,49,40,47,32,24,79,54,37,29.97,29.61,19,5,0,0.00
2013-11-19,40,34,30,25,20,-100,70,61,54,30.33,29.97,8,-19,0,0.00
2013-11-20,49,33,26,20,-3,-100,77,34,19,30.36,30.23,10,-146,0,0.00
2013-11-21,58,39,37,42,6,-100,59,42,39,30.35,30.12,8,-157,0,0.00
2013-11-22,53,35,38,51,2,-100,93,63,88,30.14,29.97,10,-307,0,0.02
2013-11-23,38,28,19,35,5,-100,90,61,51,30.30,30.08,11,-144,0,0.00
2013-11-24,21,16,14,14,-3,-100,86,57,47,30.52,30.27,14,-71,0,0.00
2013-11-25,40,28,15,13,5,-2,64,40,18,30.49,30.17,3,0,0,0.00
2013-11-26,38,35,32,35,31,12,94,86,34,30.16,29.62,3,0,0,0.03
2013-11-27,33,28,22,31,24,11,94,86,62,30.09,29.64,14,3,0,0.00
2013-11-28,29,25,19,19,15,11,78,67,58,30.38,30.10,11,1,0,0.02
2013-11-29,36,30,26,20,19,18,74,64,50,30.59,30.38,3,0,0,0.01
2013-11-30,45,30,26,24,2,-100,69,48,42,30.53,30.15,7,-128,0,0.00
2013-12-1,46,42,42,31,21,-100,59,47,41,30.15,29.89,8,-30,0,0.00
2013-12-2,51,45,41,36,32,29,78,61,50,29.89,29.72,6,0,0,0.00
2013-12-3,56,46,38,38,36,34,88,69,46,29.82,29.74,1,0,0,0.00
2013-12-4,64,55,48,45,40,-100,69,59,48,29.89,29.76,6,-10,0,0.40
2013-12-5,68,60,45,57,52,43,92,75,59,29.87,29.75,11,1,0,0.00
2013-12-6,43,34,30,41,32,28,93,92,91,30.19,29.90,6,1,0,0.00
2013-12-7,29,26,22,28,22,17,93,83,70,30.52,30.17,6,0,0,0.00
2013-12-8,38,27,20,34,22,16,85,81,75,30.51,30.00,11,1,0,0.00
2013-12-9,47,38,31,44,34,24,92,84,73,30.08,29.90,13,3,0,0.00
2013-12-10,31,27,24,24,20,12,89,74,57,30.22,29.94,13,2,0,0.00
2013-12-11,32,26,20,19,14,11,74,60,43,30.34,30.19,12,3,0,0.00
2013-12-12,24,20,14,16,6,2,81,55,40,30.44,30.26,17,3,0,0.00
2013-12-13,36,28,20,14,9,4,54,45,35,30.25,30.15,8,1,0,0.00
2013-12-14,45,38,34,41,28,11,89,70,35,30.17,29.58,11,2,0,0.00
2013-12-15,43,31,26,40,26,19,90,81,69,29.96,29.55,12,5,0,0.00
2013-12-16,30,25,22,26,21,17,90,83,72,30.10,29.96,8,1,0,0.00
2013-12-17,38,34,28,32,29,22,91,81,72,29.98,29.86,5,1,0,0.00
2013-12-18,34,28,26,23,20,18,81,70,51,30.16,29.98,10,2,0,0.00
2013-12-19,57,49,35,32,21,3,44,34,21,30.07,29.93,13,3,0,0.00
2013-12-20,60,56,53,49,34,19,80,47,26,29.94,29.80,13,2,0,0.00
2013-12-21,69,62,59,57,53,49,88,71,55,29.82,29.57,17,2,0,0.00
2013-12-22,73,64,59,56,54,51,87,72,51,29.77,29.47,12,4,0,0.00
2013-12-23,32,29,30,25,17,-100,74,67,66,30.22,0.00,6,-43,0,0.00
2013-12-24,30,23,16,23,13,4,89,66,47,30.48,30.18,11,3,0,0.00
2013-12-25,33,23,14,19,11,6,77,62,38,30.48,30.16,3,0,0,0.00
2013-12-26,38,32,27,27,19,12,86,60,41,30.29,30.10,11,3,0,0.00
2013-12-27,44,28,30,19,-15,-100,55,30,29,30.33,30.21,7,-270,0,0.00
2013-12-28,51,44,38,24,20,17,45,38,29,30.23,29.98,11,2,0,0.00
2013-12-29,49,42,39,41,33,-100,93,78,27,29.97,29.55,6,-10,0,0.00
2013-12-30,39,11,23,36,-48,-100,91,35,73,30.12,29.78,6,-558,0,0.00
2013-12-31,28,16,24,19,-31,-100,78,41,63,30.28,29.93,12,-391,0,0.00
2014-1-1,45,17,30,25,-46,-100,77,22,34,30.29,29.94,5,-551,0,0.00
2014-1-2,30,3,23,27,-91,-100,92,7,88,29.95,29.48,5,-903,0,0.00